Location: N�rnberg
(49.4489°N, 11.0797°E)
Time: 14:55:46
(UTC+02:00)

ISS - Pass Details

Date: 05 January 2018
Orbit: 402 x 408 km, 51.6° (Epoch: 20 July)

Event Time Altitude Azimuth Distance (km) Brightness Sun altitude
Exits shadow 04:41:55 - 73° (ENE) 1,580 0.0 -32.9°
Enters shadow 05:39:10 -66° 258° (WSW) 12,104 3.6 -23.6°
Maximum altitude 06:15:08 58° 356° (N) 496 -3.6 -17.9°
